This demonstration page uses our WeatherBlox Daily Observations layout. Learn more.

Left ArrowRight Arrow

40.92945, -100.16068

Hourly Observations for November 5, 2020

Temp ( °F °C ) Dew Point ( °F °C ) Humidity (%) Winds ( mph kmh ) Pressure ( in mb ) Visibility ( mi km ) Precip ( " mm )
12:15 am 00:15 Clear 42 5.8 30 -1 62 62 WNW 5 7 30.18 1022 10 16.0934 0 0
12:35 am 00:35 Clear 41 5.1 30 -1.1 65 65 WNW 7 11 30.2 1023 10 16.0934 0 0
12:55 am 00:55 Clear 41 5.2 30 -1.3 63 63 W 9 15 30.2 1023 10 16.0934 0 0
1:15 am 01:15 Clear 42 5.5 30 -1.3 62 62 WNW 9 15 30.2 1023 10 16.0934 0 0
1:35 am 01:35 Clear 41 5.1 29 -1.6 62 62 W 9 15 30.22 1023 10 16.0934 0 0
1:55 am 01:55 Clear 40 4.3 29 -1.6 66 66 W 7 11 30.23 1024 10 16.0934 0 0
2:15 am 02:15 Clear 39 4 29 -1.6 67 67 W 10 17 30.23 1024 10 16.0934 0 0
2:35 am 02:35 Clear 40 4.5 29 -1.7 64 64 WNW 10 17 30.23 1024 10 16.0934 0 0
2:55 am 02:55 Clear 40 4.4 29 -1.6 65 65 WNW 13 20 30.24 1024 10 16.0934 0 0
3:15 am 03:15 Clear 41 5 30 -1.2 65 65 W 10 17 30.24 1024 10 16.0934 0 0
3:35 am 03:35 Clear 41 4.9 30 -1.1 65 65 W 10 17 30.24 1024 10 16.0934 0 0
3:55 am 03:55 Clear 39 3.7 29 -1.5 69 69 W 8 13 30.25 1024 10 16.0934 0 0
4:15 am 04:15 Clear 37 3 29 -1.6 72 72 WNW 9 15 30.27 1025 10 16.0934 0 0
4:35 am 04:35 Clear 37 2.9 29 -1.7 72 72 WNW 10 17 30.28 1025 10 16.0934 0 0
4:55 am 04:55 Clear 38 3.2 29 -1.6 71 71 W 10 17 30.28 1025 10 16.0934 0 0
5:15 am 05:15 Clear 39 4.1 30 -1.2 69 69 WNW 12 19 30.28 1025 10 16.0934 0 0
5:35 am 05:35 Clear 38 3.5 30 -1.3 71 71 WNW 10 17 30.28 1025 10 16.0934 0 0
5:55 am 05:55 Clear 38 3.4 30 -1.3 72 72 WNW 12 19 30.3 1026 10 16.0934 0 0
6:15 am 06:15 Clear 38 3.6 30 -1.1 72 72 WNW 10 17 30.3 1026 10 16.0934 0 0
6:35 am 06:35 Clear 37 3 30 -1.2 74 74 WNW 9 15 30.31 1026 10 16.0934 0 0
6:55 am 06:55 Clear 37 2.9 30 -1.3 74 74 WNW 9 15 30.32 1027 10 16.0934 0 0
7:15 am 07:15 Clear 36 2.3 29 -1.5 76 76 WNW 9 15 30.32 1027 10 16.0934 0 0
7:35 am 07:35 Sunny 36 2 29 -1.5 78 78 WNW 8 13 30.34 1027 10 16.0934 0 0
7:55 am 07:55 Sunny 37 2.9 30 -1 76 76 WNW 8 13 30.33 1027 10 16.0934 0 0
8:15 am 08:15 Sunny 40 4.4 31 -0.6 70 70 WNW 8 13 30.32 1027 10 16.0934 0 0
8:35 am 08:35 Sunny 43 5.9 32 -0.1 66 66 WNW 8 13 30.31 1026 10 16.0934 0 0
8:55 am 08:55 Sunny 46 7.6 32 0 59 59 WNW 9 15 30.29 1026 10 16.0934 0 0
9:15 am 09:15 Sunny 49 9.6 33 0.5 53 53 WNW 8 13 30.27 1025 10 16.0934 0 0
9:35 am 09:35 Sunny 52 11.2 33 0.6 48 48 NW 8 13 30.26 1025 10 16.0934 0 0
9:55 am 09:55 Sunny 55 12.8 33 0.7 44 44 WNW 7 11 30.25 1024 10 16.0934 0 0
10:15 am 10:15 Sunny 58 14.4 34 1.2 41 41 NW 6 9 30.23 1024 10 16.0934 0 0
10:35 am 10:35 Sunny 61 16.3 34 1.1 36 36 WNW 5 7 30.21 1023 10 16.0934 0 0
10:55 am 10:55 Sunny 64 17.8 35 1.8 34 34 WNW 6 9 30.2 1023 10 16.0934 0 0
11:15 am 11:15 Sunny 66 18.7 35 1.8 32 32 W 6 9 30.18 1022 10 16.0934 0 0
11:35 am 11:35 Sunny 68 19.8 36 2 31 31 WNW 3 6 30.17 1022 10 16.0934 0 0
11:55 am 11:55 Sunny 70 21 36 2.1 29 29 Calm 30.16 1021 10 16.0934 0 0
12:15 pm 12:15 Sunny 72 22.3 36 2.2 27 27 Calm 30.15 1021 10 16.0934 0 0
12:35 pm 12:35 Sunny 72 22.3 34 1.1 25 25 Calm 30.14 1021 10 16.0934 0 0
12:55 pm 12:55 Sunny 73 22.7 33 0.8 24 24 Calm 30.13 1020 10 16.0934 0 0
1:15 pm 13:15 Sunny 73 22.6 32 0.1 23 23 Calm 30.12 1020 10 16.0934 0 0
1:35 pm 13:35 Sunny 74 23.1 31 -0.3 21 21 Calm 30.1 1019 10 16.0934 0 0
1:55 pm 13:55 Sunny 74 23.6 32 0.1 21 21 WSW 3 6 30.09 1019 10 16.0934 0 0
2:15 pm 14:15 Sunny 74 23.5 32 0.1 21 21 Calm 30.07 1018 10 16.0934 0 0
2:35 pm 14:35 Sunny 76 24.3 32 0 20 20 SSW 5 7 30.06 1018 10 16.0934 0 0
2:55 pm 14:55 Sunny 76 24.5 32 0 20 20 SSW 3 6 30.05 1018 10 16.0934 0 0
3:15 pm 15:15 Sunny 76 24.2 32 0 20 20 S 6 9 30.06 1018 10 16.0934 0 0
3:35 pm 15:35 Sunny 76 24.5 32 -0.1 20 20 S 7 11 30.03 1017 10 16.0934 0 0
3:55 pm 15:55 Sunny 76 24.6 32 0 20 20 S 6 9 30.02 1017 10 16.0934 0 0
4:15 pm 16:15 Sunny 75 24.1 32 0 20 20 S 6 9 30.03 1017 10 16.0934 0 0
4:35 pm 16:35 Sunny 75 23.9 33 0.3 21 21 S 5 7 30.03 1017 10 16.0934 0 0
4:55 pm 16:55 Sunny 73 22.7 32 0 22 22 SSW 7 11 30.03 1017 10 16.0934 0 0
5:15 pm 17:15 Sunny 70 21 32 0 25 25 SSW 6 9 30.04 1017 10 16.0934 0 0
5:35 pm 17:35 Clear 65 18.2 32 -0.1 29 29 S 7 11 30.07 1018 10 16.0934 0 0
5:55 pm 17:55 Clear 63 17.2 32 0 31 31 SSW 6 9 30.08 1018 10 16.0934 0 0
6:15 pm 18:15 Clear 60 15.4 31 -0.5 34 34 SSW 7 11 30.1 1019 10 16.0934 0 0
6:35 pm 18:35 Clear 58 14.3 31 -0.6 36 36 SSW 7 11 30.11 1020 10 16.0934 0 0
6:55 pm 18:55 Clear 56 13.3 31 -0.3 39 39 SSW 6 9 30.13 1020 10 16.0934 0 0
7:15 pm 19:15 Clear 54 12.3 32 -0.2 42 42 SSW 6 9 30.15 1021 10 16.0934 0 0
7:35 pm 19:35 Clear 55 13 32 0 41 41 S 6 9 30.14 1021 10 16.0934 0 0
7:55 pm 19:55 Clear 55 13 33 0.3 42 42 S 5 7 30.13 1020 10 16.0934 0 0
8:15 pm 20:15 Clear 53 11.7 32 0.2 45 45 S 6 9 30.14 1021 10 16.0934 0 0
8:35 pm 20:35 Clear 50 10.2 31 -0.6 47 47 S 8 13 30.14 1021 10 16.0934 0 0
8:55 pm 20:55 Clear 48 9.1 31 -0.7 51 51 S 7 11 30.14 1021 10 16.0934 0 0
9:15 pm 21:15 Clear 52 11 32 0.1 47 47 S 6 9 30.12 1020 10 16.0934 0 0
9:35 pm 21:35 Clear 53 11.9 32 0 44 44 S 7 11 30.11 1020 10 16.0934 0 0
9:55 pm 21:55 Clear 55 12.6 32 0.2 43 43 SSE 5 7 30.1 1019 10 16.0934 0 0
10:15 pm 22:15 Clear 52 10.9 32 0 47 47 SSE 7 11 30.11 1020 10 16.0934 0 0
10:35 pm 22:35 Clear 53 11.6 32 0.2 46 46 SSE 6 9 30.11 1020 10 16.0934 0 0
10:55 pm 22:55 Clear 53 11.9 32 0.2 45 45 SE 3 6 30.09 1019 10 16.0934 0 0
11:15 pm 23:15 Clear 56 13.3 33 0.4 42 42 SSE 5 7 30.08 1019 10 16.0934 0 0
11:35 pm 23:35 Clear 55 12.8 32 0 42 42 SE 6 9 30.09 1019 10 16.0934 0 0
11:55 pm 23:55 Clear 53 11.7 32 0.1 45 45 SSE 5 7 30.09 1019 10 16.0934 0 0

Powered by AerisWeather